Regional Weather Roundup
Issued by NWS

Home | Current Version | Previous Version | Graphics & Text | Print | Product List | Glossary On
Versions: 1 2 3 4 5 6 7 8 9 10 11 12 13 14 15 16 17 18 19 20 21 22 23 24 25 26 27 28 29 30 31 32 33 34 35 36 37 38 39 40 41 42 43 44 45 46 47 48 49 50
000
ASUS43 KMPX 052301
RWRMN
WEATHER ROUNDUP FOR MINNESOTA
NATIONAL WEATHER SERVICE TWIN CITIES/CHANHASSEN MN
600 PM CDT SUN JUL 05 2015


NOTE: "FAIR" INDICATES FEW OR NO CLOUDS BELOW 12,000 FEET WITH NO
SIGNIFICANT WEATHER AND/OR OBSTRUCTIONS TO VISIBILITY. N/A MEANS
CURRENT SKY AND/OR WEATHER CONDITIONS ARE NOT AVAILABLE.

MNZ060>063-068>070-060000-
   Twin Cities Metro

CITY           SKY/WX    TMP DP  RH WIND       PRES   REMARKS
TWIN CITIES    PTSUNNY   88  69  53 S14G23    29.83F HX  92
ST PAUL        PTSUNNY   85  71  63 S18G24    29.83F HX  90
CRYSTAL        PTSUNNY   87  69  54 S13G23    29.81S HX  91
BLAINE         PTSUNNY   86  70  58 S16G25    29.83S HX  90
LAKEVILLE      MOSUNNY   82  70  65 S13G18    29.85F
EDEN PRAIRIE   PTSUNNY   84  70  62 S15G25    29.83S
SOUTH ST PAUL  PTSUNNY   85  69  57 S10G17    29.85S
LAKE ELMO      FAIR      82  70  65 S20       29.86S
$$
MNZ001>005-007-008-013>017-022>024-027-028-060000-
   Northwest Minnesota

CITY           SKY/WX    TMP DP  RH WIND       PRES   REMARKS
BEMIDJI        PTSUNNY   75  64  68 CALM      29.75F
HALLOCK        MOSUNNY   73  66  78 NW12      29.80R HAZE
ROSEAU         PTSUNNY   72  66  83 NW10      29.79R
WARROAD        PTSUNNY   73  66  78 NW10      29.78R
THIEF RVR FALL MOSUNNY   73  66  78 NW10      29.80S
CROOKSTON      MOSUNNY   75  68  78 N13G18    29.80S
FOSSTON        PTSUNNY   73  64  73 NW10      29.80R
DETROIT LAKES  MOSUNNY   84  68  58 SW9       29.78S
MOORHEAD       SUNNY     81  72  74 NW8       29.77R
PARK RAPIDS    MOSUNNY   83  66  56 SW13      29.77S
MAHNOMEN       MOCLDY    77  68  73 N8        29.77R
$$
MNZ006-009>011-018-025>026-060000-
   North Central Minnesota

CITY           SKY/WX    TMP DP  RH WIND       PRES   REMARKS
BAUDETTE       CLOUDY    71  65  81 NW10      29.77R
FLAG ISLAND    MOSUNNY   70  63  78 NW15      29.76R
INTL FALLS     LGT RAIN  74  64  71 W8        29.75R
WASKISH        CLOUDY    72  64  78 W7        29.77R
BIG FORK       CLOUDY    75  72  88 CALM      29.76S
LONGVILLE      CLOUDY    81  66  61 S9        29.77R
GRAND RAPIDS   PTSUNNY   82  66  57 S14       29.77F
CRANE LAKE     CLOUDY    70  68  94 S3        29.75F
COOK           CLOUDY    81  68  65 SW7       29.76S
WALKER         CLOUDY    80  68  67 SW5       29.76S THUNDER
$$
MNZ012-019>021-037-060000-
   Northeast Minnesota

CITY           SKY/WX    TMP DP  RH WIND       PRES   REMARKS
DULUTH         PTSUNNY   81  67  62 S17       29.80F
ELY            CLOUDY    79  64  61 S13       29.76F
HIBBING        CLOUDY    82  68  62 S8        29.76F
DULUTH HARBOR  PTSUNNY   66  63  88 N10       29.79F
SILVER BAY     CLOUDY    77  63  61 S5        29.79F
GRAND MARAIS     N/A     54  51  90 E7        29.81F
G MARAIS ARPRT PTSUNNY   72  59  64 S8        29.86F
$$
MNZ029>031-032-039>041-046>048-054>057-064-060000-
   West Central Minnesota

CITY           SKY/WX    TMP DP  RH WIND       PRES   REMARKS
FERGUS FALLS   PTSUNNY   84  72  65 SW7       29.74R
WHEATON        PTSUNNY   84  72  65 NW7       29.75S
MORRIS         PTSUNNY   90  70  51 S17       29.74S HX  95
ALEXANDRIA     CLOUDY    84  69  60 S15G24    29.78F
ELBOW LAKE     FAIR      86  74  66 S8        29.74S HX  94
WADENA         PTSUNNY   84  66  54 S8        29.77S
GLENWOOD       CLOUDY    82  70  65 S14       29.79S
APPLETON       PTSUNNY   91  70  49 S9G16     29.74F HX  97
BENSON         PTSUNNY   88  66  48 SW14      29.76F HX  90
ORTONVILLE     MOSUNNY   90  70  51 S6        29.74F HX  95
MADISON        PTSUNNY   88  68  51 S14       29.75F HX  91
WILLMAR          N/A     88  72  58 S8        29.80F HX  94
$$
MNZ033>034-036-042>043-049>051-058-059-060000-
   Central Minnesota

CITY           SKY/WX    TMP DP  RH WIND       PRES   REMARKS
ST CLOUD       CLOUDY    83  70  64 S14       29.80F
SAUK CENTRE    FAIR      83  68  59 S14G22    29.79S
PAYNESVILLE    MOSUNNY   83  69  63 SE9G16    29.80F
AITKIN         PTSUNNY   82  72  69 S12G17    29.76F
PINE RIVER       N/A     82  68  61 S10       29.81R
BRAINERD       PTSUNNY   85  69  58 S14       29.77F
STAPLES        PTSUNNY   82  66  57 S14       29.78R
LONG PRAIRIE   FAIR      81  68  65 SE13      29.79S
LITTLE FALLS   PTSUNNY   82  68  61 S12       29.78F
LITCHFIELD     MOSUNNY   84  73  70 S6        29.81F HX  91
BUFFALO        PTSUNNY   84  69  61 S10G18    29.83S
MAPLE LAKE     PTSUNNY   84  73  69 S7        29.83S HX  91
$$
MNZ037-044-045-052-053-060000-
   East Central Minnesota

CITY           SKY/WX    TMP DP  RH WIND       PRES   REMARKS
PRINCETON      PTSUNNY   88  72  58 S12G18    29.82R HX  94
MORA           PTSUNNY   84  68  58 SW10      29.83S
CAMBRIDGE      PTSUNNY   88  70  55 S14       29.80S HX  92
RUSH CITY      PTSUNNY   83  70  64 S9G18     29.83S
MOOSE LAKE     PTSUNNY   81  68  65 S6G17     29.79F
HINCKLEY       FAIR      82  70  65 S14G21    29.81F
CLOQUET        PTSUNNY   81  66  61 S7G17     29.81F
MCGREGOR       PTSUNNY   82  68  61 S13       29.79F
$$
MNZ071>073-080-081-089-090-097-098-060000-
   Southwest Minnesota

CITY           SKY/WX    TMP DP  RH WIND       PRES   REMARKS
GRANITE FALLS  PTSUNNY   87  67  52 S14       29.79F HX  90
CANBY          PTSUNNY   86  68  53 S9        29.78F
MARSHALL       PTSUNNY   88  66  48 S13       29.78F HX  90
REDWOOD FALLS  PTSUNNY   88  70  55 S13       29.80F HX  93
OLIVIA         MOSUNNY   88  64  45 S15G21    29.80F
PIPESTONE      MOSUNNY   84  72  65 S12       29.82S
WINDOM         MOSUNNY   88  70  55 S12G24    29.84S HX  92
WORTHINGTON    MOSUNNY   88  70  55 S16G25    29.84F HX  92
JACKSON        MOSUNNY   86  70  58 S15       29.86F HX  90
TRACY          CLOUDY    87  70  56 S12G20    29.81F HX  92
SLAYTON        MOSUNNY   86  70  58 S15       29.83F HX  90
$$
MNZ065>067-074>077-082>085-091>093-060000-
   South Central Minnesota

CITY           SKY/WX    TMP DP  RH WIND       PRES   REMARKS
MANKATO        PTSUNNY   84  70  61 S13G20    29.84F
NEW ULM        SUNNY     86  72  62 S15G22    29.82F HX  92
FAIRMONT       PTSUNNY   84  66  54 S15       29.86S
GLENCOE        PTSUNNY   86  73  66 S13G18    29.83S HX  93
FARIBAULT      MOSUNNY   82  70  65 SE17G23   29.88S
OWATONNA       MOSUNNY   82  68  61 S14G23    29.89S
WASECA         MOSUNNY   82  68  61 S18G28    29.88F
ALBERT LEA     MOSUNNY   84  68  58 S14G21    29.90S
$$
MNZ078>079-086>088-094>096-060000-
   Southeast Minnesota

CITY           SKY/WX    TMP DP  RH WIND       PRES   REMARKS
ROCHESTER      PTSUNNY   82  67  60 S18       29.93S
RED WING       PTSUNNY   84  66  54 S12G17    29.86F
DODGE CENTER   MOSUNNY   81  68  65 S20G25    29.91F
WINONA         MOSUNNY   81  64  57 S3        29.92S
AUSTIN         PTSUNNY   82  66  57 S9G16     29.91F
PRESTON        MOSUNNY   79  65  62 S15G22    29.94F
$$
ABBREVIATIONS USED IN REMARKS
   TC - TEMPERATURES IN CELSIUS
  WCI - WIND CHILL INDEX
   HX - HEAT INDEX
  VSB - VISIBILITY
$$



USA.gov is the U.S. government's official web portal to all federal, state and local government web resources and services.